Temperature
24 23 22 23 29 31 30 30 30 30 29 28 27 27 28 27 27 24 21 21 20 19 19 19 19 19 19 19 19 19 19 19 19 19 19 19 18 18 18 18 18 18 18 18 18 18 18 18 18
23 22 23 28 32 30 29 30 30 29 28 27 27 27 27 25 23 22 21 20 20 19 19 19 19 19 19 19 19 19 19 19 19 19 19 18 18 18 18 18 18 18 18 18 18 18 18 18 18
23 23 27 32 31 30 30 30 30 29 28 28 27 26 26 24 22 21 21 20 20 19 19 19 19 19 19 19 19 19 19 19 19 19 18 18 18 18 18 18 18 18 18 18 18 18 18 18 18
24 26 30 32 31 31 30 30 30 29 28 27 27 26 24 22 22 21 20 20 20 19 19 19 19 19 19 19 19 19 19 19 19 18 18 18 18 18 18 18 18 18 18 18 18 18 18 18 18
25 30 32 32 31 31 31 30 30 30 29 28 27 26 24 21 21 21 20 20 20 20 19 19 19 19 19 19 19 19 19 19 18 18 18 18 18 18 18 18 18 18 18 18 18 18 17 17 17
30 32 32 31 31 31 31 30 30 30 29 27 27 26 23 20 20 21 20 20 20 20 19 19 19 19 19 19 19 19 19 19 18 18 18 18 18 18 18 18 18 18 18 18 18 18 17 17 17
31 33 32 32 31 31 31 30 30 30 29 28 27 27 23 20 20 20 20 20 20 20 19 19 18 19 19 19 19 19 19 18 18 18 18 18 18 18 18 18 18 18 18 18 18 17 18 18 17
30 33 32 32 31 31 31 30 29 29 28 26 26 27 24 21 20 19 19 19 19 19 19 19 19 18 18 18 19 19 19 18 18 18 18 18 18 18 18 18 18 18 18 17 17 17 17 17 17
29 33 32 32 31 32 31 31 29 28 27 26 26 26 24 21 20 19 19 19 19 19 19 19 19 18 18 18 18 18 18 18 18 18 18 18 17 17 17 17 18 18 18 18 17 17 17 17 17
32 32 32 32 32 32 31 31 30 29 28 27 25 23 22 21 20 19 19 19 19 18 18 18 18 18 18 18 18 18 17 18 17 17 17 17 17 17 17 18 17 17 18 18 17 17 17 17 17
32 32 32 32 31 31 31 31 30 30 30 28 26 23 21 21 20 20 20 20 19 19 18 18 18 18 18 18 18 18 17 17 17 17 17 17 17 17 17 17 17 17 17 17 17 17 17 17 17
32 32 31 32 31 31 31 31 30 30 29 28 26 24 22 21 21 20 20 20 19 19 18 18 18 18 18 18 18 18 17 17 17 18 17 17 17 17 17 17 17 17 17 17 17 17 17 17 17
32 32 31 31 31 31 30 31 30 29 28 27 25 23 22 22 21 21 20 20 19 19 19 18 19 19 18 18 18 18 17 17 17 18 17 17 17 17 17 17 17 17 17 17 17 17 17 17 17
31 31 31 31 31 31 31 31 30 29 27 26 25 24 23 22 21 21 20 19 19 19 19 19 19 19 19 18 18 18 17 18 17 17 17 17 17 17 17 17 17 17 17 17 17 17 17 17 17
30 32 32 32 31 31 31 31 31 28 27 26 25 24 23 22 21 21 20 20 20 20 19 19 19 19 19 18 18 18 17 17 17 17 17 17 17 17 17 17 17 17 17 17 17 17 17 17 17
32 32 32 32 32 31 31 31 30 28 28 27 25 24 23 22 21 21 20 20 20 20 20 20 19 19 19 19 18 18 18 17 17 17 17 17 17 17 17 17 17 17 17 17 17 17 17 17 17
32 32 32 32 32 32 32 31 30 29 28 27 26 24 23 22 21 21 20 20 20 20 20 20 19 19 19 19 18 18 18 18 17 17 18 18 17 17 17 17 17 17 17 17 17 17 17 17 17
31 32 31 31 31 31 31 31 30 29 28 28 26 25 23 23 22 21 20 20 20 20 20 20 19 19 19 18 18 18 18 18 18 18 18 18 17 17 17 17 17 17 17 17 17 17 17 17 17
31 31 31 31 31 31 31 31 30 29 28 28 27 26 24 23 22 21 20 20 20 20 20 20 19 19 19 18 18 18 18 18 18 18 18 18 17 17 18 17 17 17 17 17 17 17 17 17 17
30 30 31 31 31 31 31 31 31 29 29 28 27 26 25 24 22 21 20 20 20 20 20 20 19 19 19 18 18 18 18 18 18 18 18 18 18 17 17 17 17 17 17 17 17 17 17 17 17
30 30 31 30 30 31 31 31 30 30 28 27 27 26 26 24 23 22 21 20 20 20 20 19 19 19 19 18 18 18 18 18 18 18 18 18 18 17 17 17 17 17 17 17 17 17 17 17 17
30 31 30 30 30 31 30 31 31 31 30 29 28 27 26 25 23 22 21 21 20 20 20 20 19 19 19 18 18 18 18 18 18 18 18 18 18 17 17 17 17 17 17 17 17 17 17 17 17
30 30 30 30 30 30 31 30 31 31 30 30 29 28 27 25 24 22 22 21 21 20 20 19 19 19 19 18 18 18 17 17 17 17 17 18 17 17 17 17 17 17 17 17 17 17 17 17 17
29 29 29 30 31 29 30 30 30 31 31 30 29 27 26 25 24 23 22 21 20 20 20 19 19 19 19 18 18 18 18 17 17 17 17 17 17 17 17 17 17 17 17 17 17 17 17 17 17
29 29 29 29 29 30 29 29 30 31 30 30 29 27 26 25 24 22 22 21 20 20 19 19 19 19 19 18 18 18 18 17 17 17 17 17 17 17 17 17 17 17 17 17 17 17 17 17 17
29 30 29 29 29 30 29 30 31 31 29 29 28 27 26 25 24 23 22 21 20 20 19 19 19 19 18 18 18 18 18 17 17 17 17 17 17 17 17 17 17 17 17 17 17 17 17 17 17
30 30 32 30 30 29 30 30 31 31 30 29 28 27 26 25 24 23 22 21 21 20 19 19 19 18 18 18 18 18 17 17 17 17 17 17 17 17 17 17 17 17 17 17 17 17 17 17 17
30 31 30 30 28 28 29 30 30 31 30 30 29 28 26 25 24 23 22 21 21 20 19 19 18 18 18 18 18 17 17 17 17 17 17 17 17 17 17 17 17 17 17 17 17 17 17 17 17
28 29 30 30 30 29 29 30 32 31 31 30 29 28 27 25 25 23 22 21 21 20 19 18 18 18 18 18 18 17 17 17 17 17 17 17 17 17 17 17 17 17 17 17 17 17 17 17 17
30 30 29 29 28 29 29 31 31 31 31 30 29 28 27 25 25 23 22 21 21 20 19 19 18 18 18 18 17 17 17 17 17 17 17 17 17 17 17 17 17 17 17 17 17 17 16 16 16
Wind_Speed
8 6 4 4 2 9 15 12 10 9 8 7 6 4 6 7 6 8 11 17 18 18 18 17 16 16 15 16 16 16 16 16 15 14 14 13 13 12 12 11 11 11 12 12 12 12 13 13 13
3 3 4 3 5 12 13 10 11 10 8 7 6 6 6 8 8 11 14 16 19 18 19 18 17 16 16 16 16 16 15 15 14 14 13 13 12 12 11 11 11 12 12 12 12 12 13 13 13
4 5 4 2 11 12 13 10 9 8 6 5 5 6 6 6 8 10 15 19 18 17 17 19 18 16 16 16 15 15 14 14 14 13 13 12 12 12 11 11 11 12 12 12 12 12 12 13 13
4 4 2 5 13 11 8 7 6 6 6 5 5 7 6 6 6 11 18 19 18 16 17 19 17 16 16 15 15 14 14 14 13 12 12 12 11 11 11 11 11 12 12 12 12 12 12 13 13
5 3 3 9 11 8 6 5 4 4 5 5 4 7 7 6 10 16 18 18 17 16 17 19 17 16 15 15 15 14 14 13 12 12 11 11 11 11 11 11 11 12 12 12 12 12 12 12 12
3 2 5 9 10 7 5 3 3 5 6 5 5 7 6 8 13 17 17 16 15 15 16 19 17 15 15 14 14 14 13 12 12 11 11 11 11 11 11 11 11 11 11 12 12 12 12 12 12
3 3 7 8 8 7 6 4 3 3 5 5 4 6 8 11 14 16 15 14 14 14 15 17 17 15 14 13 13 13 12 12 11 11 11 11 11 11 11 11 11 11 11 11 12 11 11 11 12
4 0 6 7 7 8 5 3 3 3 5 5 3 4 8 14 15 15 14 13 12 12 13 14 15 15 15 14 13 12 12 11 11 11 11 11 11 11 10 11 11 11 11 11 11 11 11 11 10
4 0 6 7 6 5 4 3 3 3 5 5 3 4 11 20 18 16 14 13 12 12 11 12 13 13 12 13 14 12 12 10 10 10 10 9 9 10 10 11 10 10 10 10 10 10 10 10 10
3 2 7 5 5 5 4 2 2 3 5 5 7 10 17 20 18 17 17 16 16 15 13 11 11 12 11 10 12 10 10 10 8 8 9 7 7 7 9 11 9 10 10 10 9 9 10 8 9
2 4 5 4 5 5 3 1 1 2 2 4 9 15 19 19 18 17 16 16 15 15 13 12 11 11 10 9 9 8 7 8 7 7 7 6 7 7 8 9 9 9 9 9 10 9 7 6 6
2 3 4 5 5 5 4 1 1 1 2 4 9 17 19 19 18 17 16 15 14 14 14 12 11 10 9 9 8 7 7 7 6 7 7 7 5 5 6 5 7 7 6 5 6 5 5 5 5
3 3 5 5 5 3 2 1 1 1 3 6 12 17 18 18 16 15 13 13 14 14 14 13 12 10 9 8 7 7 6 7 7 6 6 5 5 5 5 5 4 5 5 6 5 5 6 5 5
4 5 5 4 2 0 1 1 2 2 5 9 12 14 16 16 16 14 14 14 14 14 14 13 13 12 10 8 6 6 7 6 6 7 7 6 5 5 5 5 4 4 5 4 4 5 5 4 4
5 6 4 1 2 1 3 3 2 4 7 9 11 12 13 14 14 14 14 13 13 13 13 13 13 12 11 10 9 7 7 7 7 6 7 7 6 6 5 4 5 5 5 5 4 5 4 4 4
6 7 5 1 1 1 6 1 4 5 7 8 10 11 12 12 13 13 13 12 12 13 13 13 12 12 11 9 8 7 7 7 7 7 7 8 7 6 6 5 5 5 6 6 4 4 4 3 3
7 5 3 2 0 3 5 2 3 3 6 7 9 10 11 11 12 12 13 13 13 13 13 13 12 12 11 9 8 7 6 6 6 7 7 7 8 8 7 5 4 6 5 5 5 5 4 4 3
4 4 3 2 1 4 5 3 1 3 6 6 8 9 11 11 12 12 12 12 12 13 13 13 13 11 10 9 7 6 6 6 7 7 7 8 8 8 8 7 7 7 5 5 4 3 3 3 4
3 4 3 1 2 4 4 4 2 3 6 7 8 9 10 10 10 11 11 11 11 12 13 13 13 13 11 8 8 8 7 7 7 7 8 9 9 8 8 7 7 7 6 6 6 5 6 5 4
6 6 4 2 1 4 5 5 2 3 5 6 7 9 10 10 10 11 12 12 13 13 13 14 14 14 13 10 8 6 6 6 7 6 7 9 9 9 9 8 7 7 6 7 6 6 5 4 5
8 7 4 2 3 4 6 5 4 4 4 5 7 7 9 10 11 12 12 13 13 13 13 12 14 14 13 11 8 6 5 5 6 7 7 8 9 10 10 9 8 6 7 7 7 7 7 5 5
8 4 4 4 6 3 4 5 2 3 4 5 6 7 8 10 11 11 12 12 12 12 12 12 12 13 12 11 10 11 9 9 9 7 7 8 9 10 10 10 9 7 7 7 8 8 6 6 6
3 2 4 5 6 7 5 7 1 3 4 4 5 6 7 9 10 11 11 11 11 11 11 11 11 11 11 12 12 11 10 8 7 7 8 8 8 10 10 10 9 8 8 8 8 6 8 7 7
5 5 4 6 8 8 4 6 3 0 1 1 3 5 7 8 9 10 10 10 10 10 10 10 10 10 11 11 11 11 11 10 9 9 8 8 7 8 10 10 9 9 8 8 8 8 9 8 7
9 9 7 7 7 5 2 6 3 2 2 2 3 6 8 9 10 10 11 11 10 11 10 10 10 10 10 10 10 11 11 11 11 9 9 8 8 8 9 9 9 9 8 8 8 8 8 8 8
13 13 8 6 5 3 5 5 1 2 0 1 3 6 9 10 10 10 11 10 10 11 11 10 10 10 10 10 9 9 10 9 8 9 8 8 7 7 7 9 9 9 9 9 8 8 8 7 8
11 13 11 9 7 7 4 3 4 4 3 3 5 7 9 9 10 10 10 10 10 10 10 10 10 9 9 9 8 8 9 8 8 7 8 7 7 7 8 8 8 8 8 8 7 7 8 7 8
8 9 7 9 7 8 6 6 3 3 3 4 6 7 9 10 10 10 10 9 10 10 9 9 9 8 8 8 7 7 8 8 8 7 7 7 7 7 8 8 8 8 8 8 8 8 8 8 7
10 10 9 9 9 7 6 3 2 2 3 4 6 7 9 10 10 10 10 9 9 9 9 9 8 8 7 7 7 6 7 7 7 7 7 7 7 7 8 8 8 8 8 8 8 8 7 8 7
13 14 13 10 9 8 8 3 5 2 3 4 5 7 8 9 10 10 10 10 10 9 9 9 8 8 7 7 7 7 6 6 7 7 7 7 7 7 7 7 7 8 8 8 8 8 7 7 8
Wind_Direction
210 210 229 245 197 72 65 62 61 65 70 75 81 67 62 46 41 88 124 140 138 140 140 145 139 134 130 128 127 126 127 129 129 130 129 129 128 126 124 121 118 115 112 111 110 111 112 112 114
211 213 238 249 61 71 67 59 61 64 80 100 92 83 77 67 66 111 135 140 144 142 145 145 138 137 133 130 128 128 129 130 130 129 130 128 127 126 126 124 121 118 115 113 112 112 113 113 115
220 239 274 59 62 61 65 61 71 87 95 97 90 67 62 78 105 128 138 146 146 142 142 137 143 139 135 132 130 129 129 129 129 129 129 127 125 124 125 124 122 120 118 117 115 113 114 114 114
239 233 235 72 71 63 58 62 75 92 94 78 92 89 82 81 116 133 141 149 145 144 144 139 145 141 138 135 133 131 130 129 128 127 126 126 124 122 122 122 122 122 120 118 115 115 114 115 115
252 266 102 78 71 67 60 59 68 66 78 86 93 99 94 88 117 134 146 149 146 147 144 141 145 143 140 138 136 134 133 131 128 124 122 122 121 120 119 120 121 121 121 119 117 117 117 118 117
261 256 73 72 72 69 68 69 76 67 86 99 107 108 96 117 134 143 147 150 149 149 144 139 145 144 143 141 138 136 134 132 130 128 125 122 120 118 117 119 120 121 121 121 121 120 119 120 120
311 49 70 68 71 69 53 49 43 63 89 98 111 112 122 137 142 146 147 149 150 150 146 147 151 150 146 142 140 138 136 132 131 129 127 123 121 119 118 119 120 122 122 124 124 122 121 121 121
308 251 83 68 56 59 53 48 46 41 86 102 127 127 145 148 147 145 146 150 151 154 153 153 157 153 155 151 146 142 137 134 133 131 130 130 129 126 127 129 121 124 126 127 127 126 126 126 125
280 318 66 50 32 38 39 37 77 89 116 122 103 93 129 142 146 148 151 154 159 164 161 162 157 158 159 153 148 150 145 143 147 142 140 154 146 137 144 117 125 129 130 130 130 131 133 137 134
294 40 51 25 8 2 6 10 108 153 141 138 125 114 132 146 154 160 164 166 170 171 169 167 163 162 161 155 151 156 158 156 164 147 152 150 133 133 123 122 129 131 133 134 131 136 153 170 141
326 13 17 8 360 338 333 18 155 193 148 158 159 148 151 157 164 170 173 174 173 172 170 170 168 168 164 160 159 159 159 155 158 149 149 143 148 144 142 142 144 144 153 148 146 166 161 144 126
311 357 340 335 338 321 320 325 150 226 57 109 150 153 158 167 173 176 177 175 174 174 172 172 170 171 173 168 163 167 168 166 162 156 170 162 162 155 144 151 149 156 150 145 152 148 141 137 137
293 327 329 329 322 322 296 256 166 121 108 122 140 154 164 172 175 178 177 176 177 176 176 175 174 174 174 172 178 176 176 174 164 162 172 175 172 168 156 153 160 163 150 159 162 151 145 153 157
322 310 305 317 339 315 271 158 170 114 131 138 151 161 168 174 175 176 180 182 183 180 179 178 180 179 178 179 184 181 183 182 180 177 175 188 182 166 170 165 170 169 171 164 167 157 162 170 154
279 278 263 273 320 327 261 198 148 126 144 153 160 165 170 175 179 184 184 185 184 183 181 182 183 183 182 186 189 190 193 189 192 183 181 191 193 174 186 173 181 174 166 165 183 173 175 176 173
247 248 237 147 329 300 270 242 105 145 163 165 167 170 174 179 185 188 187 187 185 183 183 185 186 183 186 189 191 195 199 198 197 195 190 195 198 192 202 191 189 174 183 182 181 196 190 188 187
224 234 235 170 66 297 272 295 122 167 183 178 176 177 179 182 191 190 189 189 187 185 184 185 188 185 187 188 190 200 202 210 209 203 201 200 204 202 210 204 182 190 194 193 200 186 196 194 195
221 234 226 243 9 298 275 279 213 200 204 196 183 182 183 187 192 187 185 187 188 187 186 187 187 184 184 187 193 201 209 214 215 212 206 206 207 206 214 207 196 203 196 200 209 186 202 213 211
275 261 255 300 343 295 284 284 240 210 212 207 198 189 189 193 187 181 183 187 189 187 187 189 188 184 184 189 197 199 207 213 215 215 211 211 213 208 215 220 196 211 206 212 207 201 199 208 203
237 245 236 206 342 296 293 279 230 203 215 215 206 196 195 189 181 180 183 186 193 191 191 189 191 189 192 194 198 203 207 213 213 214 213 215 214 213 211 219 216 209 209 214 218 213 223 209 201
230 246 253 283 287 240 283 243 195 180 194 204 211 204 197 191 186 183 187 190 192 192 193 194 193 193 196 195 195 198 199 213 214 212 211 212 215 219 224 218 226 219 221 213 216 214 220 224 216
228 228 249 259 270 275 293 293 195 200 203 201 204 201 197 191 188 185 188 190 193 193 190 193 191 195 196 195 201 203 207 210 216 216 212 210 215 223 224 223 224 224 228 220 222 217 223 226 229
235 166 226 249 266 274 252 282 285 180 224 206 198 198 193 186 188 186 188 187 189 188 186 188 190 193 195 199 205 210 220 221 220 218 218 221 219 222 225 223 221 222 229 228 232 224 230 226 231
170 182 203 237 252 253 264 278 281 70 318 216 187 187 185 180 179 179 179 176 178 181 182 183 186 192 195 199 206 212 222 224 224 223 222 220 219 219 222 223 219 222 228 226 226 228 227 236 237
205 218 226 229 231 245 153 260 286 23 360 293 221 188 179 174 172 172 175 176 176 179 180 180 183 189 194 200 206 212 221 223 225 225 223 223 221 218 218 221 218 222 225 229 226 223 236 231 230
211 226 242 259 257 232 183 251 285 89 30 265 187 172 170 170 170 171 174 175 177 178 178 180 183 186 192 199 205 210 216 222 223 223 225 221 223 225 218 220 221 224 226 229 224 230 229 229 229
208 226 243 256 267 272 250 252 248 175 177 164 157 163 168 168 167 168 169 172 173 176 178 181 182 185 191 197 198 204 211 219 219 219 221 220 220 219 214 220 224 227 226 229 229 235 232 228 231
241 222 216 234 244 251 240 241 248 190 178 168 169 170 169 169 170 168 168 171 171 173 174 178 181 185 188 192 197 201 208 212 212 213 211 212 217 220 213 218 222 224 226 228 229 233 231 229 231
194 207 220 229 244 257 252 229 131 210 192 190 180 174 173 174 173 170 169 168 169 170 173 176 177 182 186 190 192 197 200 203 206 208 208 209 215 217 217 217 220 224 227 228 226 231 230 230 230
214 216 212 221 225 243 267 248 119 175 191 198 182 170 171 173 170 169 168 168 170 171 172 175 179 183 184 184 186 192 194 196 200 203 206 206 208 214 215 217 219 224 226 224 223 227 227 228 230
Height
1512 1511 1511 1513 1506 1503 1511 1509 1506 1508 1510 1514 1516 1516 1516 1519 1521 1533 1537 1538 1541 1543 1545 1547 1549 1551 1553 1555 1556 1557 1559 1560 1561 1562 1563 1564 1565 1566 1567 1568 1569 1570 1570 1571 1572 1573 1573 1574 1575
1514 1513 1515 1510 1502 1514 1516 1509 1510 1512 1516 1518 1519 1520 1520 1525 1529 1533 1536 1539 1543 1545 1547 1549 1551 1553 1555 1556 1558 1559 1560 1562 1563 1564 1565 1566 1567 1568 1569 1569 1570 1571 1572 1573 1574 1574 1575 1576 1577
1515 1515 1515 1503 1506 1514 1516 1511 1512 1516 1518 1519 1520 1522 1525 1530 1533 1536 1538 1541 1545 1548 1550 1550 1552 1555 1557 1558 1560 1561 1562 1563 1565 1565 1566 1567 1568 1569 1570 1571 1572 1573 1574 1574 1575 1576 1577 1577 1578
1517 1517 1512 1504 1511 1512 1511 1512 1514 1515 1519 1520 1521 1525 1530 1534 1536 1538 1539 1543 1547 1549 1552 1552 1554 1556 1558 1560 1561 1563 1564 1565 1566 1567 1568 1569 1570 1570 1571 1572 1573 1574 1575 1576 1577 1578 1579 1579 1580
1519 1513 1504 1508 1511 1511 1512 1514 1516 1515 1518 1521 1522 1526 1532 1536 1537 1539 1542 1546 1549 1552 1554 1554 1556 1558 1560 1562 1563 1564 1565 1567 1568 1569 1570 1571 1571 1572 1573 1574 1575 1576 1577 1578 1579 1580 1581 1581 1582
1517 1508 1508 1514 1514 1511 1512 1515 1516 1517 1520 1523 1524 1527 1535 1537 1539 1541 1545 1548 1551 1553 1556 1555 1557 1559 1561 1563 1565 1566 1567 1568 1569 1570 1571 1572 1573 1574 1574 1575 1576 1578 1579 1580 1581 1582 1583 1584 1584
1516 1506 1511 1512 1513 1512 1514 1516 1516 1517 1520 1524 1526 1528 1535 1538 1540 1543 1546 1550 1552 1555 1557 1557 1559 1561 1563 1564 1566 1567 1568 1569 1571 1572 1573 1574 1574 1575 1576 1577 1578 1579 1580 1582 1583 1584 1585 1586 1586
1517 1508 1509 1511 1514 1514 1515 1517 1519 1519 1522 1526 1528 1528 1534 1538 1540 1543 1547 1550 1553 1556 1558 1559 1562 1563 1565 1566 1567 1568 1570 1571 1572 1573 1574 1575 1576 1576 1577 1579 1579 1581 1582 1583 1585 1586 1587 1587 1588
1518 1510 1514 1514 1516 1514 1515 1516 1520 1522 1524 1527 1528 1530 1533 1536 1539 1543 1546 1550 1552 1555 1558 1560 1563 1564 1566 1568 1568 1570 1571 1572 1573 1574 1575 1576 1578 1579 1580 1580 1581 1582 1584 1585 1586 1587 1588 1589 1590
1516 1512 1516 1515 1515 1515 1516 1517 1519 1521 1523 1526 1530 1532 1534 1536 1539 1542 1545 1548 1551 1554 1557 1560 1563 1564 1567 1569 1569 1571 1573 1573 1575 1576 1577 1578 1579 1580 1581 1581 1582 1584 1585 1586 1587 1588 1590 1591 1592
1516 1515 1516 1516 1517 1517 1516 1517 1518 1518 1520 1524 1527 1531 1534 1537 1540 1543 1546 1548 1551 1554 1557 1559 1562 1564 1567 1568 1570 1571 1573 1574 1575 1576 1577 1579 1580 1581 1582 1583 1584 1585 1586 1588 1588 1590 1592 1593 1594
1518 1518 1519 1517 1517 1517 1516 1516 1518 1519 1521 1524 1527 1530 1533 1536 1539 1542 1546 1548 1551 1554 1556 1558 1561 1563 1565 1568 1570 1571 1573 1574 1576 1576 1578 1579 1581 1582 1583 1584 1585 1586 1588 1588 1590 1591 1592 1593 1594
1519 1519 1519 1517 1517 1516 1517 1516 1518 1520 1523 1525 1527 1530 1533 1536 1539 1543 1546 1548 1550 1552 1554 1557 1559 1561 1563 1566 1569 1571 1573 1575 1576 1577 1578 1579 1581 1583 1584 1584 1585 1588 1588 1589 1590 1591 1592 1593 1594
1521 1520 1518 1517 1516 1516 1516 1516 1518 1521 1524 1526 1528 1530 1533 1536 1539 1541 1544 1546 1549 1551 1553 1556 1558 1560 1562 1565 1567 1570 1573 1574 1576 1577 1578 1579 1582 1583 1584 1585 1586 1588 1589 1590 1591 1592 1592 1594 1595
1522 1518 1515 1515 1515 1515 1515 1514 1516 1521 1523 1526 1528 1530 1533 1536 1538 1540 1542 1545 1547 1550 1552 1554 1557 1559 1562 1564 1567 1569 1572 1574 1576 1577 1578 1579 1581 1582 1584 1586 1586 1588 1588 1589 1590 1591 1593 1593 1594
1517 1515 1516 1514 1515 1515 1516 1516 1517 1520 1522 1525 1528 1530 1533 1535 1537 1540 1542 1544 1546 1549 1551 1553 1556 1558 1561 1563 1565 1568 1571 1573 1574 1576 1577 1578 1580 1582 1583 1585 1587 1587 1589 1589 1590 1592 1593 1594 1594
1515 1517 1517 1515 1514 1514 1513 1514 1516 1519 1521 1523 1527 1529 1532 1534 1536 1537 1539 1542 1545 1547 1549 1551 1554 1557 1559 1562 1564 1567 1569 1571 1573 1575 1576 1578 1579 1581 1583 1585 1586 1587 1588 1590 1591 1592 1593 1593 1593
1519 1516 1517 1517 1514 1513 1512 1512 1514 1518 1519 1521 1525 1528 1530 1532 1534 1536 1538 1541 1543 1545 1547 1550 1552 1555 1557 1560 1562 1565 1567 1570 1572 1573 1575 1577 1579 1580 1582 1584 1584 1587 1588 1589 1590 1590 1591 1592 1592
1518 1518 1518 1516 1514 1514 1512 1512 1513 1516 1518 1520 1523 1526 1529 1531 1534 1535 1537 1539 1542 1544 1545 1548 1550 1552 1555 1558 1560 1563 1565 1568 1570 1572 1573 1575 1577 1579 1580 1583 1583 1585 1587 1588 1589 1590 1590 1591 1592
1520 1520 1518 1516 1515 1514 1512 1511 1510 1514 1516 1518 1520 1523 1526 1529 1532 1533 1535 1537 1540 1541 1543 1545 1548 1550 1552 1555 1558 1561 1563 1566 1568 1569 1571 1573 1575 1577 1580 1580 1582 1584 1585 1586 1587 1588 1589 1591 1591
1519 1519 1517 1518 1515 1512 1513 1510 1509 1511 1514 1517 1518 1521 1524 1526 1529 1531 1533 1536 1538 1539 1541 1543 1545 1548 1550 1553 1555 1558 1560 1563 1565 1567 1569 1571 1573 1575 1577 1579 1580 1582 1583 1584 1585 1586 1587 1589 1590
1519 1514 1516 1518 1518 1513 1516 1518 1508 1506 1510 1512 1515 1518 1521 1524 1526 1529 1531 1533 1535 1537 1539 1541 1543 1545 1548 1550 1553 1555 1557 1559 1561 1564 1566 1568 1570 1572 1574 1576 1577 1579 1581 1582 1583 1585 1585 1586 1588
1514 1515 1516 1516 1517 1518 1514 1518 1507 1504 1507 1508 1511 1515 1518 1521 1524 1527 1529 1531 1534 1536 1538 1539 1541 1543 1545 1547 1550 1552 1554 1556 1558 1560 1562 1564 1567 1568 1571 1572 1574 1576 1578 1579 1580 1581 1583 1584 1585
1516 1517 1517 1515 1514 1526 1517 1521 1514 1502 1505 1505 1509 1513 1516 1519 1522 1525 1528 1530 1532 1534 1536 1538 1539 1541 1543 1545 1547 1548 1550 1552 1554 1556 1558 1561 1563 1565 1567 1569 1571 1573 1575 1576 1577 1578 1579 1581 1582
1515 1519 1525 1527 1525 1522 1515 1519 1511 1501 1503 1505 1507 1511 1514 1518 1520 1523 1526 1528 1530 1532 1534 1536 1537 1539 1540 1542 1544 1545 1547 1549 1550 1552 1555 1557 1559 1561 1563 1566 1567 1569 1571 1573 1574 1574 1576 1577 1578
1511 1512 1525 1532 1527 1517 1517 1516 1503 1500 1504 1505 1507 1509 1513 1516 1519 1522 1525 1527 1529 1531 1533 1534 1535 1537 1538 1540 1541 1543 1544 1546 1548 1549 1552 1553 1556 1558 1560 1562 1564 1565 1567 1569 1570 1572 1573 1573 1574
1509 1509 1501 1512 1518 1522 1512 1508 1499 1499 1501 1504 1506 1509 1511 1515 1518 1521 1523 1526 1528 1530 1531 1533 1534 1535 1537 1538 1539 1540 1542 1543 1545 1547 1548 1551 1552 1555 1557 1558 1560 1562 1563 1565 1566 1568 1568 1570 1571
1502 1501 1508 1514 1528 1530 1518 1513 1505 1498 1499 1501 1504 1507 1510 1514 1517 1520 1522 1525 1527 1529 1530 1531 1532 1534 1535 1536 1537 1539 1539 1541 1542 1544 1546 1548 1550 1552 1553 1555 1557 1558 1560 1561 1562 1564 1565 1565 1566
1507 1508 1505 1506 1508 1521 1523 1511 1491 1495 1497 1499 1502 1505 1509 1512 1515 1518 1521 1524 1526 1527 1529 1530 1531 1532 1533 1535 1536 1537 1537 1539 1540 1542 1543 1545 1547 1549 1550 1552 1553 1555 1556 1557 1558 1560 1560 1561 1562
1495 1498 1503 1513 1516 1513 1512 1506 1489 1493 1495 1498 1500 1504 1508 1511 1514 1517 1520 1522 1524 1526 1527 1529 1530 1531 1532 1533 1534 1535 1536 1537 1538 1540 1541 1543 1544 1546 1547 1549 1550 1551 1552 1553 1554 1555 1557 1558 1558